www.pogodaiklimat.ru
ПОГОДА в Джеймстауне
Время
и дата
16:29 26.06
16:42 26.06
16:51 26.06
16:56 26.06
17:18 26.06
17:56 26.06
18:19 26.06
18:56 26.06
19:12 26.06
19:31 26.06
19:56 26.06
20:03 26.06
20:19 26.06
20:32 26.06
20:56 26.06
21:06 26.06
21:56 26.06
22:09 26.06
22:16 26.06
22:56 26.06
23:28 26.06
23:56 26.06
00:11 27.06
00:50 27.06
00:56 27.06
01:56 27.06
02:56 27.06
03:56 27.06
04:56 27.06
05:56 27.06
06:56 27.06
07:56 27.06
08:56 27.06
09:56 27.06
10:56 27.06
11:56 27.06
12:56 27.06
13:56 27.06
14:56 27.06
15:56 27.06
16:56 27.06
17:56 27.06
18:56 27.06
19:56 27.06
20:56 27.06
21:56 27.06
22:56 27.06
23:56 27.06
Ветер
(напр.,м/с)
Видим. Явления Облачность Т
(С)
Тd
(С)
f
(%)
Тe
(С)
Тes
(С)
Комфортность P
(гПа)
Po
(гПа)
Тmin
(С)
Tmax
(С)
R
(мм)
R24
(мм)
S
(см)
ЮЗ 2 16 км 10/10 840 м +25.0 +20.0 74 +31 +31 очень
душно
953.2
ЮЗ 3
{4}
16 км гроза, слабый дождь 10/10 660 м +23.0 +20.0 83 +30 +30 очень
душно
953.5
ЮЗ 2 16 км 10/10 600 м +23.0 +20.0 83 +30 +30 очень
душно
953.2
ЮЗ 2 16 км гроза 10/10 720 м +22.8 +20.0 84 +29 +29 очень
душно
1014.5 953.2
ЮЗ 1 16 км 8/8 1470 м
[Ac]
+23.0 +20.0 83 +30 +31 очень
душно
953.2
ЮЗ 1 16 км 10/10 930 м +23.3 +20.6 85 +31 +31 очень
душно
1014.4 953.2
Ю 1 16 км 10/10 840 м +23.0 +21.0 89 +31 +31 очень
душно
953.2
ЮЗ 2 16 км 10/10 330 м +23.3 +21.1 87 +31 +31 очень
душно
1014.1 953.2 +22.8 +26.7
Ю 1 16 км гроза 10/10 330 м +23.0 +21.0 89 +31 +31 очень
душно
953.2
Ю 1 16 км 10/10 330 м +22.0 +21.0 94 +28 +28 душно 953.2
Ю 1 16 км 10/10 390 м +22.2 +21.1 93 +29 +29 очень
душно
1013.9 952.8
Ю 1 16 км 10/10 210 м +22.0 +21.0 94 +28 +28 душно 953.2
Ю 1 16 км 10/10 210 м +22.0 +21.0 94 +28 +28 душно 952.8
ЮЗ 1 16 км 5/5 360 м +22.0 +21.0 94 +28 +28 душно 952.8
ЮЗ 1 16 км 5/5 720 м +21.1 +20.6 97 +26 +26 душно 1014.1 953.2
ЮЗ 1 16 км 8/8 660 м +21.0 +21.0 100 +27 +27 душно 953.2
ЮЗ 2 16 км 8/8 240 м +21.1 +20.6 97 +26 +26 душно 1014.4 953.5
ЮЗ 2 16 км 8/8 240 м +21.0 +21.0 100 +27 +27 душно 953.5
ЮЗ 2 16 км 8/8 300 м +22.0 +21.0 94 +28 +28 душно 953.5
ЮЗ 2 14 км 10/10 270 м +21.1 +20.6 97 +26 +26 душно 1014.3 953.2
ЮЗ 2 14 км 10/10 270 м +21.0 +21.0 100 +26 +26 душно 953.2
З 2 16 км слабый дождь 10/10 270 м +21.1 +20.0 93 +26 +26 душно 1014.3 953.5
З 2 16 км слабый дождь 10/10 270 м +21.0 +19.0 88 +26 +26 душно 953.5
З 3 16 км 10/10 300 м +21.0 +18.0 83 +25 +25 комфорт 953.5
СЗ 1 16 км 10/10 360 м +20.6 +18.3 87 +25 +25 комфорт 1014.6 953.8 +20.6 +23.3
З 2 16 км 10/10 1350 м +18.9 +15.0 78 +20 +20 1015.0 954.1
СЗ 3 16 км ясно +17.2 +13.3 78 +16 +16 1015.6 954.4
СЗ 1 16 км ясно +16.1 +12.8 81 +16 +16 1015.9 954.7
СЗ 1 16 км ясно +15.0 +11.1 77 +15 +15 1016.7 955.1
СЗ 2 16 км ясно +15.6 +11.1 75 +15 +15 1017.5 956.0
СЗ 2 16 км ясно +17.2 +11.1 67 +17 +17 1017.8 956.3 +15.0 +20.6
СЗ 3 16 км 8/8 900 м +17.8 +10.6 63 +17 +17 1018.4 956.7
СЗ 3 16 км 2/2 1170 м +18.3 +7.8 50 +18 +19 1018.7 957.0
З 3 16 км 8/8 1260 м +18.9 +8.3 50 +19 +19 1018.8 957.3
З 4
{4}
16 км 5/5 1380 м +19.4 +8.3 49 +20 +21 1018.9 957.3
З 3
{5}
16 км ясно +20.0 +5.0 37 +20 +25 1018.9 957.3
З 4
{5}
16 км ясно +19.4 +5.0 39 +19 +20 1019.0 957.3 +17.2 +20.0
З 3
{4}
16 км ясно +18.9 +5.6 42 +19 +24 1019.3 957.6
З 3
{5}
16 км 5/5 1500 м +19.4 +6.7 44 +20 +23 1019.6 957.6
СЗ 4
{5}
16 км 5/5 1500 м +18.9 +6.1 43 +18 +19 1019.6 957.6
З 3
{4}
16 км 8/8 1500 м +18.3 +6.7 47 +18 +18 1020.0 957.9
З 2 16 км 10/10 1410 м +17.2 +7.2 52 +17 +17 1020.4 958.2
СЗ 2 16 км 10/2 1260 м
[Ac]
+16.7 +7.8 56 +16 +17 1020.5 958.6 +16.7 +20.0
СЗ 1 16 км 10/5 1140 м
[Ac]
+15.6 +8.9 64 +15 +15 1021.0 958.9
СЗ 1 16 км 10/5 1650 м
[Ac]
+15.0 +8.9 67 +14 +14 1021.6 959.5
СЗ 1 16 км 10/0 2250 м
[Ac]
+15.0 +8.9 67 +15 +15 1021.9 959.8
СЗ 1 16 км 10/0 2100 м
[Ac]
+13.3 +8.9 75 +13 +13 1022.0 959.8
СЗ 1 16 км ясно +12.2 +7.8 74 +11 +11 1022.3 959.8
Местоположение метеостанции Chautauqua County / Jamestown Airport: широта 42.1500 долгота -79.2667 высота над уровнем моря 525 м.
В архиве по умолчанию представлена погода в Джеймстауне за последние 1-2 суток. Обновление информации о фактической погоде в базе происходит ежечасно! Архивные данные за месяц целиком и за предыдущие месяцы Вы можете получить, выбрав интересующий диапазон дат из раскрывающегося списка и нажав кнопку "Ввод!".
Внимание! Архив погоды МЕТАР в базе сайта по станциям, не включенным в климатический монитор, хранится не более 60 дней. Нет смысла пытаться выбрать более раннюю дату.
*Определитесь, кто Вы:
Внимание! Время в таблицах - местное (без учета летнего времени). Для получения всемирного времени необходимо вычесть поправку, которая равна -5 ч.
Смотрите также архив погоды в соседних городах и на ближайших метеорологических станциях:
Партнеры нашего сайта:      
Пояснения к столбцам:
  • Ветер - указаны скорость ветра в м/с - средняя за 10 мин, порывы в срок и между сроками (в фигурных скобках) и направление, откуда дует ветер: С - северный,
  • СВ - северо-восточный, В - восточный, ЮВ - юго-восточный, Ю - южный, ЮЗ - юго-западный, З - западный, СЗ - северо-западный.
  • Видимость - горизонтальная дальность видимости в метрах или километрах. При видимости от 1 до 10 км при отсутствии осадков обычно наблюдается дымка, при ухудшении видимости до 1 км и менее - туман. В сухую погоду видимость может ухудшаться дымом, пылью или мглою.
  • Явления - указаны атмосферные явления, наблюдавшиеся в срок или в последний час перед сроком; фигурными скобками обозначены явления, наблюдавшиеся между сроками (за 1-3 часа до срока); квадратными скобками обозначены град или гололедные отложения с указанием их диаметра в мм.
  • Облачность - указаны через наклонную черту общая и нижняя облачность в баллах и высота нижней границы облаков в метрах; квадратными скобками обозначены формы облаков: Ci - перистые, Cs - перисто-слоистые, Cc - перисто-кучевые, Ac - высококучевые, As - высокослоистые, Sc - слоисто-кучевые, Ns - слоисто-дождевые, Cu - кучевые, Cb - кучево-дождевые. Подробнее классификацию облаков см. в Атласе облаков (PDF).
  • T - Температура воздуха - температура, измеренная на высоте 2 м над землей.
  • Td - Температура точки росы - температура, при понижении до которой содержащийся в воздухе водяной пар достигнет насыщения.
  • f - Относительная влажность воздуха - влажноcть воздуха, измеренная на высоте 2 м над землей.
  • Te - Эффективная температура - температура, которую ощущает одетый по сезону человек в тени. Характеристика душности погоды. При расчете учитывается влияние влажности воздуха и скорости ветра на теплоощущения человека.
  • Tes - Эффективная температура на солнце - температура, которую ощущает человек, с поправкой на солнечный нагрев. Характеристика знойности погоды. Зависит от высоты солнца над горизонтом, облачности и скорости ветра. Ночью, в пасмурную погоду, а также при ветре 12 м/с и более поправка равна нулю.
  • P - Атмосферное давление - приведенное к уровню моря атмосферное давление.
  • Po - Атмосферное давление - измеренное на уровне метеостанции атмосферное давление.
  • Tmin - Минимальная температура - минимум температуры воздуха на высоте 2 м над землей.
  • Tmax - Максимальная температура - максимум температуры воздуха на высоте 2 м над землей.
  • R - Количество осадков - Количество выпавших осадков за период времени, мм. При наведении курсора мыши на число - период времени, за который выпало указанное количество осадков.
  • R24 - Количество осадков - Количество выпавших осадков за 24 часа, мм.
  • S - Снежный покров - Высота снежного покрова, см. При наведении курсора мыши на число - состояние снежного покрова и степень покрытия местности в баллах.